Tracking 30743 objects as of 22-Jun-2025
HD Live streaming from Space Station
objects crossing your sky now

IRIDIUM 33 DEB

Track IRIDIUM 33 DEB now!
10-day predictions


NORAD ID: 34366
Int'l Code: 1997-051FJ
Perigee: 710.4 km
Apogee: 742.1 km
Inclination: 86.4 °
Period: 99.2 minutes
Semi major axis: 7097 km
RCS: 0.0424 m2 (small)
Launch date: September 14, 1997
Source: United States (US)
Launch site: TYURATAM MISSILE AND SPACE COMPLEX (TTMTR)

Note: This is SATELLITE DEBRIS
Your satellite tracking list
Your tracking list is empty




NASA's NSSDC Master Catalog

Two Line Element Set (TLE):
1 34366U 97051FJ  25172.82898736  .00003361  00000-0  82483-3 0  9993
2 34366  86.3706 124.7994 0022328  13.7574  15.2173 14.51990476856570
Source of the keplerian elements: AFSPC